Tracking 19176 objects as of 28-May-2018
HD Live streaming from Space Station
objects crossing your sky now

OPS 9326 (IDSCS 13)

Track OPS 9326 (IDSCS 13) now!
OPS 9326 (IDSCS 13) is classified as:


NORAD ID: 2653
Int'l Code: 1967-003F
Perigee: 33,635.5 km
Apogee: 34,003.6 km
Inclination: 2.8 °
Period: 1,336.4 minutes
Semi major axis: 40190 km
RCS: 0.7944 m2 (medium)
Launch date: January 18, 1967
Source: United States (US)
Launch site: AIR FORCE EASTERN TEST RANGE (AFETR)
aabbcc
Your satellite tracking list
Your tracking list is empty




NASA's NSSDC Master Catalog

Two Line Element Set (TLE):
1 02653U 67003F   18147.25286059 -.00000135  00000-0  00000+0 0  9999
2 02653   2.8426  57.2657 0045795 354.7521   4.7875  1.07749943101017
Source of the keplerian elements: AFSPC